Time,TemperatureF,DewpointF,PressureIn,WindDirection,WindDirectionDegrees,WindSpeedMPH,WindSpeedGustMPH,Humidity,HourlyPrecipIn,Conditions,Clouds,dailyrainin,SoftwareType,DateUTC
2013-02-12 00:08:00,20.5,17.0,29.85,SSW,205,0.0,-999.0,87,-99.99,,,0.00,weatherlink.com 1.10,2013-02-12 05:08:00,
2013-02-12 00:23:00,21.0,18.0,29.86,SW,218,0.0,-999.0,87,-99.99,,,0.00,weatherlink.com 1.10,2013-02-12 05:23:00,
2013-02-12 00:38:00,21.5,18.0,29.86,NNE,13,0.0,-999.0,86,-99.99,,,0.00,weatherlink.com 1.10,2013-02-12 05:38:00,
2013-02-12 00:53:00,21.8,18.0,29.87,NE,55,0.0,-999.0,85,-99.99,,,0.00,weatherlink.com 1.10,2013-02-12 05:53:00,
2013-02-12 01:09:00,21.9,18.0,29.87,WNW,290,0.0,-999.0,85,-99.99,,,0.00,weatherlink.com 1.10,2013-02-12 06:09:00,
2013-02-12 01:23:00,22.1,18.0,29.88,West,263,0.0,-999.0,84,-99.99,,,0.00,weatherlink.com 1.10,2013-02-12 06:23:00,
2013-02-12 01:38:00,22.2,18.0,29.88,West,261,1.0,-999.0,85,-99.99,,,0.00,weatherlink.com 1.10,2013-02-12 06:38:00,
2013-02-12 01:54:00,22.2,18.0,29.88,SSW,211,0.0,-999.0,84,-99.99,,,0.00,weatherlink.com 1.10,2013-02-12 06:54:00,
2013-02-12 02:08:00,22.3,18.0,29.89,WNW,296,0.0,-999.0,84,-99.99,,,0.00,weatherlink.com 1.10,2013-02-12 07:08:00,
2013-02-12 02:39:00,22.3,18.0,29.90,NNE,31,0.0,-999.0,84,-99.99,,,0.00,weatherlink.com 1.10,2013-02-12 07:39:00,
2013-02-12 02:54:00,22.3,18.0,29.90,ENE,64,1.0,-999.0,83,-99.99,,,0.00,weatherlink.com 1.10,2013-02-12 07:54:00,
2013-02-12 03:09:00,22.1,18.0,29.91,North,360,0.0,-999.0,83,-99.99,,,0.00,weatherlink.com 1.10,2013-02-12 08:09:00,
2013-02-12 03:24:00,21.9,18.0,29.91,SW,220,0.0,-999.0,83,-99.99,,,0.00,weatherlink.com 1.10,2013-02-12 08:24:00,
2013-02-12 03:39:00,21.6,18.0,29.92,WNW,285,1.0,-999.0,84,-99.99,,,0.00,weatherlink.com 1.10,2013-02-12 08:39:00,
2013-02-12 03:54:00,21.4,17.0,29.92,West,270,0.0,-999.0,84,-99.99,,,0.00,weatherlink.com 1.10,2013-02-12 08:54:00,
2013-02-12 04:09:00,21.3,17.0,29.92,WNW,285,0.0,-999.0,84,-99.99,,,0.00,weatherlink.com 1.10,2013-02-12 09:09:00,
2013-02-12 04:24:00,21.2,17.0,29.92,NE,41,0.0,-999.0,84,-99.99,,,0.00,weatherlink.com 1.10,2013-02-12 09:24:00,
2013-02-12 04:39:00,21.0,17.0,29.92,SSE,155,0.0,-999.0,85,-99.99,,,0.00,weatherlink.com 1.10,2013-02-12 09:39:00,
2013-02-12 04:53:00,20.7,17.0,29.93,South,170,0.0,-999.0,85,-99.99,,,0.00,weatherlink.com 1.10,2013-02-12 09:53:00,
2013-02-12 05:09:00,20.6,17.0,29.94,South,190,0.0,-999.0,86,-99.99,,,0.00,weatherlink.com 1.10,2013-02-12 10:09:00,
2013-02-12 05:24:00,20.2,17.0,29.94,South,182,0.0,-999.0,87,-99.99,,,0.00,weatherlink.com 1.10,2013-02-12 10:24:00,
2013-02-12 05:39:00,19.9,17.0,29.94,South,182,0.0,-999.0,87,-99.99,,,0.00,weatherlink.com 1.10,2013-02-12 10:39:00,
2013-02-12 05:54:00,19.4,16.0,29.95,South,182,0.0,-999.0,88,-99.99,,,0.00,weatherlink.com 1.10,2013-02-12 10:54:00,
2013-02-12 06:09:00,18.6,16.0,29.96,South,182,0.0,-999.0,88,-99.99,,,0.00,weatherlink.com 1.10,2013-02-12 11:09:00,
2013-02-12 06:24:00,17.5,15.0,29.96,South,182,0.0,-999.0,88,-99.99,,,0.00,weatherlink.com 1.10,2013-02-12 11:24:00,
2013-02-12 06:39:00,16.4,14.0,29.96,South,182,0.0,-999.0,89,-99.99,,,0.00,weatherlink.com 1.10,2013-02-12 11:39:00,
2013-02-12 06:54:00,15.8,13.0,29.97,South,182,0.0,-999.0,89,-99.99,,,0.00,weatherlink.com 1.10,2013-02-12 11:54:00,
2013-02-12 07:09:00,15.7,13.0,29.97,South,182,0.0,-999.0,90,-99.99,,,0.00,weatherlink.com 1.10,2013-02-12 12:09:00,
2013-02-12 07:24:00,16.3,14.0,29.98,South,182,0.0,-999.0,91,-99.99,,,0.00,weatherlink.com 1.10,2013-02-12 12:24:00,
2013-02-12 07:39:00,16.8,14.0,29.98,South,182,0.0,-999.0,90,-99.99,,,0.00,weatherlink.com 1.10,2013-02-12 12:39:00,
2013-02-12 07:54:00,17.5,15.0,29.98,South,182,0.0,-999.0,90,-99.99,,,0.00,weatherlink.com 1.10,2013-02-12 12:54:00,
2013-02-12 08:09:00,18.0,16.0,29.98,South,182,0.0,-999.0,90,-99.99,,,0.00,weatherlink.com 1.10,2013-02-12 13:09:00,
2013-02-12 08:24:00,18.4,16.0,29.98,South,182,0.0,-999.0,90,-99.99,,,0.00,weatherlink.com 1.10,2013-02-12 13:24:00,
2013-02-12 08:39:00,18.9,16.0,29.99,South,182,0.0,-999.0,89,-99.99,,,0.00,weatherlink.com 1.10,2013-02-12 13:39:00,
2013-02-12 08:53:00,19.5,17.0,29.99,South,182,0.0,-999.0,89,-99.99,,,0.00,weatherlink.com 1.10,2013-02-12 13:53:00,
2013-02-12 09:09:00,20.1,17.0,29.98,South,182,0.0,-999.0,89,-99.99,,,0.00,weatherlink.com 1.10,2013-02-12 14:09:00,
2013-02-12 09:24:00,20.6,18.0,29.98,South,182,0.0,-999.0,88,-99.99,,,0.00,weatherlink.com 1.10,2013-02-12 14:24:00,
2013-02-12 09:39:00,21.5,19.0,29.98,South,182,0.0,-999.0,88,-99.99,,,0.00,weatherlink.com 1.10,2013-02-12 14:39:00,
2013-02-12 09:54:00,22.4,19.0,29.98,South,176,0.0,-999.0,86,-99.99,,,0.00,weatherlink.com 1.10,2013-02-12 14:54:00,
2013-02-12 10:09:00,23.0,19.0,29.97,SW,217,1.0,-999.0,83,-99.99,,,0.00,weatherlink.com 1.10,2013-02-12 15:09:00,
2013-02-12 10:24:00,23.6,19.0,29.97,SSW,198,1.0,-999.0,82,-99.99,,,0.00,weatherlink.com 1.10,2013-02-12 15:24:00,
2013-02-12 10:39:00,24.0,18.0,29.97,SW,229,1.0,-999.0,78,-99.99,,,0.00,weatherlink.com 1.10,2013-02-12 15:39:00,
2013-02-12 10:54:00,24.6,18.0,29.97,SW,221,0.0,-999.0,76,-99.99,,,0.00,weatherlink.com 1.10,2013-02-12 15:54:00,
2013-02-12 11:09:00,24.9,18.0,29.97,SW,218,2.0,-999.0,75,-99.99,,,0.00,weatherlink.com 1.10,2013-02-12 16:09:00,
2013-02-12 11:24:00,25.0,18.0,29.97,SSW,202,1.0,-999.0,75,-99.99,,,0.00,weatherlink.com 1.10,2013-02-12 16:24:00,
2013-02-12 11:39:00,24.9,18.0,29.97,SSW,204,2.0,-999.0,75,-99.99,,,0.00,weatherlink.com 1.10,2013-02-12 16:39:00,
2013-02-12 11:54:00,25.2,18.0,29.97,SW,236,1.0,-999.0,75,-99.99,,,0.00,weatherlink.com 1.10,2013-02-12 16:54:00,
2013-02-12 12:09:00,25.6,18.0,29.96,SSE,150,1.0,-999.0,74,-99.99,,,0.00,weatherlink.com 1.10,2013-02-12 17:09:00,
2013-02-12 12:24:00,25.9,18.0,29.96,SSE,168,1.0,-999.0,73,-99.99,,,0.00,weatherlink.com 1.10,2013-02-12 17:24:00,
2013-02-12 12:39:00,26.0,18.0,29.95,NE,46,0.0,-999.0,73,-99.99,,,0.00,weatherlink.com 1.10,2013-02-12 17:39:00,
2013-02-12 12:53:00,25.7,18.0,29.95,SSW,192,1.0,-999.0,73,-99.99,,,0.00,weatherlink.com 1.10,2013-02-12 17:53:00,
2013-02-12 13:09:00,25.7,19.0,29.93,South,180,0.0,-999.0,77,-99.99,,,0.00,weatherlink.com 1.10,2013-02-12 18:09:00,
2013-02-12 13:24:00,25.7,18.0,29.92,WSW,248,0.0,-999.0,72,-99.99,,,0.00,weatherlink.com 1.10,2013-02-12 18:24:00,
2013-02-12 13:39:00,25.6,17.0,29.91,SSE,167,0.0,-999.0,70,-99.99,,,0.00,weatherlink.com 1.10,2013-02-12 18:39:00,
2013-02-12 13:54:00,25.8,18.0,29.91,SSW,213,1.0,-999.0,71,-99.99,,,0.00,weatherlink.com 1.10,2013-02-12 18:54:00,
2013-02-12 14:09:00,25.6,17.0,29.90,SSW,196,1.0,-999.0,69,-99.99,,,0.00,weatherlink.com 1.10,2013-02-12 19:09:00,
2013-02-12 14:39:00,25.3,17.0,29.90,SSW,193,2.0,-999.0,71,-99.99,,,0.00,weatherlink.com 1.10,2013-02-12 19:39:00,
2013-02-12 15:09:00,25.5,17.0,29.89,South,171,2.0,-999.0,70,-99.99,,,0.00,weatherlink.com 1.10,2013-02-12 20:09:00,
2013-02-12 15:24:00,25.9,17.0,29.89,SW,219,0.0,-999.0,68,-99.99,,,0.00,weatherlink.com 1.10,2013-02-12 20:24:00,
2013-02-12 15:39:00,25.8,17.0,29.89,SSE,168,4.0,-999.0,70,-99.99,,,0.00,weatherlink.com 1.10,2013-02-12 20:39:00,
2013-02-12 15:54:00,25.7,18.0,29.88,South,169,1.0,-999.0,71,-99.99,,,0.00,weatherlink.com 1.10,2013-02-12 20:54:00,
2013-02-12 16:09:00,25.6,17.0,29.88,SSE,168,0.0,-999.0,71,-99.99,,,0.00,weatherlink.com 1.10,2013-02-12 21:09:00,
2013-02-12 16:24:00,25.4,18.0,29.88,SW,221,0.0,-999.0,72,-99.99,,,0.00,weatherlink.com 1.10,2013-02-12 21:24:00,
2013-02-12 16:39:00,25.5,18.0,29.87,WSW,238,0.0,-999.0,72,-99.99,,,0.00,weatherlink.com 1.10,2013-02-12 21:39:00,
2013-02-12 16:53:00,25.4,18.0,29.86,SSE,164,0.0,-999.0,72,-99.99,,,0.00,weatherlink.com 1.10,2013-02-12 21:53:00,
2013-02-12 17:09:00,25.1,18.0,29.86,South,178,0.0,-999.0,74,-99.99,,,0.00,weatherlink.com 1.10,2013-02-12 22:09:00,
2013-02-12 17:24:00,24.9,18.0,29.86,SSE,163,0.0,-999.0,75,-99.99,,,0.00,weatherlink.com 1.10,2013-02-12 22:24:00,
2013-02-12 17:39:00,24.7,18.0,29.86,SSE,163,0.0,-999.0,76,-99.99,,,0.00,weatherlink.com 1.10,2013-02-12 22:39:00,
2013-02-12 17:54:00,24.3,18.0,29.85,South,190,0.0,-999.0,76,-99.99,,,0.00,weatherlink.com 1.10,2013-02-12 22:54:00,
2013-02-12 18:09:00,23.9,18.0,29.86,SW,226,0.0,-999.0,77,-99.99,,,0.00,weatherlink.com 1.10,2013-02-12 23:09:00,
2013-02-12 18:24:00,23.5,18.0,29.86,SSE,160,0.0,-999.0,78,-99.99,,,0.00,weatherlink.com 1.10,2013-02-12 23:24:00,
2013-02-12 18:39:00,23.1,18.0,29.85,SE,125,1.0,-999.0,80,-99.99,,,0.00,weatherlink.com 1.10,2013-02-12 23:39:00,
2013-02-12 18:54:00,22.8,18.0,29.85,ESE,119,0.0,-999.0,80,-99.99,,,0.00,weatherlink.com 1.10,2013-02-12 23:54:00,
2013-02-12 19:09:00,22.5,18.0,29.85,SSE,165,0.0,-999.0,81,-99.99,,,0.00,weatherlink.com 1.10,2013-02-13 00:09:00,
2013-02-12 19:24:00,22.3,18.0,29.85,South,182,0.0,-999.0,82,-99.99,,,0.00,weatherlink.com 1.10,2013-02-13 00:24:00,
2013-02-12 19:39:00,22.5,18.0,29.85,SW,224,1.0,-999.0,82,-99.99,,,0.00,weatherlink.com 1.10,2013-02-13 00:39:00,
2013-02-12 19:54:00,22.8,18.0,29.84,WSW,237,0.0,-999.0,82,-99.99,,,0.00,weatherlink.com 1.10,2013-02-13 00:54:00,
2013-02-12 20:09:00,22.9,18.0,29.84,SW,221,1.0,-999.0,82,-99.99,,,0.00,weatherlink.com 1.10,2013-02-13 01:09:00,
2013-02-12 20:24:00,23.1,18.0,29.83,South,172,5.0,-999.0,82,-99.99,,,0.00,weatherlink.com 1.10,2013-02-13 01:24:00,
2013-02-12 20:39:00,23.2,19.0,29.83,SW,225,2.0,-999.0,82,-99.99,,,0.00,weatherlink.com 1.10,2013-02-13 01:39:00,
2013-02-12 20:53:00,23.3,19.0,29.83,SSW,196,2.0,-999.0,82,-99.99,,,0.00,weatherlink.com 1.10,2013-02-13 01:53:00,
2013-02-12 21:09:00,23.4,19.0,29.82,South,190,3.0,-999.0,82,-99.99,,,0.00,weatherlink.com 1.10,2013-02-13 02:09:00,
2013-02-12 21:24:00,23.3,19.0,29.81,SSW,207,0.0,-999.0,83,-99.99,,,0.00,weatherlink.com 1.10,2013-02-13 02:24:00,
2013-02-12 21:39:00,23.3,19.0,29.81,SW,217,0.0,-999.0,83,-99.99,,,0.00,weatherlink.com 1.10,2013-02-13 02:39:00,
2013-02-12 21:54:00,23.5,19.0,29.80,SE,142,3.0,-999.0,83,-99.99,,,0.00,weatherlink.com 1.10,2013-02-13 02:54:00,
2013-02-12 22:09:00,23.8,19.0,29.80,SSW,211,4.0,-999.0,83,-99.99,,,0.00,weatherlink.com 1.10,2013-02-13 03:09:00,
2013-02-12 22:24:00,23.9,20.0,29.80,SW,230,1.0,-999.0,83,-99.99,,,0.00,weatherlink.com 1.10,2013-02-13 03:24:00,
2013-02-12 22:39:00,23.9,20.0,29.80,South,187,1.0,-999.0,83,-99.99,,,0.00,weatherlink.com 1.10,2013-02-13 03:39:00,
2013-02-12 22:54:00,23.6,19.0,29.80,SW,227,1.0,-999.0,83,-99.99,,,0.00,weatherlink.com 1.10,2013-02-13 03:54:00,
2013-02-12 23:09:00,23.1,19.0,29.80,SSW,192,1.0,-999.0,84,-99.99,,,0.00,weatherlink.com 1.10,2013-02-13 04:09:00,
2013-02-12 23:24:00,22.5,19.0,29.80,SSW,199,0.0,-999.0,85,-99.99,,,0.00,weatherlink.com 1.10,2013-02-13 04:24:00,
2013-02-12 23:39:00,21.8,18.0,29.80,SSW,199,0.0,-999.0,86,-99.99,,,0.00,weatherlink.com 1.10,2013-02-13 04:39:00,
2013-02-12 23:54:00,21.4,18.0,29.79,SSW,199,0.0,-999.0,86,-99.99,,,0.00,weatherlink.com 1.10,2013-02-13 04:54:00,